Weather in Uchkhoza Stenkino

Russia / Ryazan Oblast     54°31′24″N   39°30′01″E
temp.,
°C
wind,
m/s
gust,
m/s
humid.,
%
clouds,
%
prec.,
mm/h
press.,
hPa
HPBL,
m
27 february, sat
sat2700:00+1w8169492 0.1 1003716
03:000wnw8158978 0.1 1002758
06:00+1w91690100 0.0 1001931
09:00−3nnw91687100 0.7 1004858
12:00−8nnw7128898 0.0 1006635
15:00−7nnw6108897 0.0 1009549
18:00−9nnw379398 0.0 1011136
21:00−10nnw369565 0.0 1013102
28 february, sun
sun2800:00−9nnw379685 0.1 1014187
03:00−11nw349676 0.1 101592
06:00−12nw339772 0.1 101557
09:00−9nnw249579 0.3 1015208
12:00−6nnw249392 0.1 1015299
15:00−4nnw349394 0.1 1016395
18:00−3nnw2396100 0.1 1016127
21:00−6nne229799 0.1 101923
1 march, mon
mon100:00−7wnw019789 0.1 102021
03:00−8nne019794 0.1 102221
06:00−8wnw119793 0.1 102321
09:00−8wsw129687 0.1 102422
12:00−4w239473 0.0 1024233
15:00−2wsw469484 0.0 1023414
18:00−2wsw499197 0.0 1021432
21:00−1wsw5119399 0.1 1019538
2 march, tue
tue200:000wsw71293100 0.0 1016543
03:00+1w71493100 0.3 1013714
06:00+1w71398100 0.1 1010609
09:00+1nw71392100 0.5 1010791
12:00+1nw8139183 0.1 10111081
15:00+1nw7128775 0.3 1011913
18:000nw6138591 0.1 1011799
21:00−2nw6138990 0.1 1012670
3 march, wed
wed300:00−3nw5139269 0.0 1013417
03:00−2nw6139381 0.1 1014614
06:00−3nnw7119099 0.1 1015748
09:00−4nw6139381 0.1 1016471
12:00−2nw7119096 0.1 1017886
15:00−1nw6108698 0.2 1017886
18:00−1nw51088100 0.1 1017595
21:00−2nw41089100 0.1 1018611